Time,TemperatureF,DewpointF,PressureIn,WindDirection,WindDirectionDegrees,WindSpeedMPH,WindSpeedGustMPH,Humidity,HourlyPrecipIn,Conditions,Clouds,dailyrainin,SolarRadiationWatts/m^2,SoftwareType,DateUTC
2013-04-09 00:00:00,57.1,49.2,29.96,SW,225,6.0,7.0,75,0.00,,,0.00,0,Wunderground v.1.15,2013-04-09 04:00:00,
2013-04-09 00:01:00,57.2,49.3,29.96,SSW,202,6.0,7.0,75,0.00,,,0.00,0,Wunderground v.1.15,2013-04-09 04:01:00,
2013-04-09 00:02:00,57.3,49.1,29.95,SW,232,7.0,7.0,74,0.00,,,0.00,0,Wunderground v.1.15,2013-04-09 04:02:00,
2013-04-09 00:07:00,57.5,48.5,29.95,WSW,246,6.0,8.0,72,0.00,,,0.00,0,Wunderground v.1.15,2013-04-09 04:07:00,
2013-04-09 00:12:00,57.9,48.6,29.96,SW,230,5.0,10.0,71,0.00,,,0.00,0,Wunderground v.1.15,2013-04-09 04:12:00,
2013-04-09 00:17:00,58.0,49.0,29.95,WSW,244,3.0,10.0,72,0.00,,,0.00,0,Wunderground v.1.15,2013-04-09 04:17:00,
2013-04-09 00:23:00,57.6,48.6,29.95,SSW,213,3.0,8.0,72,0.00,,,0.00,0,Wunderground v.1.15,2013-04-09 04:23:00,
2013-04-09 00:28:00,57.1,48.5,29.95,SW,221,5.0,8.0,73,0.00,,,0.00,0,Wunderground v.1.15,2013-04-09 04:28:00,
2013-04-09 00:34:00,56.7,48.5,29.96,SW,221,4.0,5.0,74,0.00,,,0.00,0,Wunderground v.1.15,2013-04-09 04:34:00,
2013-04-09 00:39:00,56.3,48.5,29.95,SW,217,3.0,5.0,75,0.00,,,0.00,0,Wunderground v.1.15,2013-04-09 04:39:00,
2013-04-09 00:45:00,56.1,48.3,29.96,South,190,3.0,6.0,75,0.00,,,0.00,0,Wunderground v.1.15,2013-04-09 04:45:00,
2013-04-09 00:50:00,55.8,48.3,29.96,South,180,3.0,3.0,76,0.00,,,0.00,0,Wunderground v.1.15,2013-04-09 04:50:00,
2013-04-09 00:56:00,55.3,48.2,29.96,WSW,250,2.0,4.0,77,0.00,,,0.00,0,Wunderground v.1.15,2013-04-09 04:56:00,
2013-04-09 01:01:00,55.0,47.9,29.96,East,99,2.0,2.0,77,0.00,,,0.00,0,Wunderground v.1.15,2013-04-09 05:01:00,
2013-04-09 01:07:00,54.5,47.8,29.96,East,96,1.0,2.0,78,0.00,,,0.00,0,Wunderground v.1.15,2013-04-09 05:07:00,
2013-04-09 01:13:00,53.9,47.5,29.96,East,101,0.0,1.0,79,0.00,,,0.00,0,Wunderground v.1.15,2013-04-09 05:13:00,
2013-04-09 01:19:00,53.3,47.3,29.96,North,355,1.0,4.0,80,0.00,,,0.00,0,Wunderground v.1.15,2013-04-09 05:19:00,
2013-04-09 01:24:00,53.0,47.3,29.96,NNW,340,2.0,3.0,81,0.00,,,0.00,0,Wunderground v.1.15,2013-04-09 05:24:00,
2013-04-09 01:30:00,52.6,47.3,29.96,NNW,336,2.0,2.0,82,0.00,,,0.00,0,Wunderground v.1.15,2013-04-09 05:30:00,
2013-04-09 01:36:00,52.2,47.2,29.96,NNW,336,2.0,3.0,83,0.00,,,0.00,0,Wunderground v.1.15,2013-04-09 05:36:00,
2013-04-09 01:41:00,52.0,47.3,29.97,NNW,337,1.0,1.0,84,0.00,,,0.00,0,Wunderground v.1.15,2013-04-09 05:41:00,
2013-04-09 01:46:00,51.7,47.0,29.97,NNW,334,0.0,1.0,84,0.00,,,0.00,0,Wunderground v.1.15,2013-04-09 05:46:00,
2013-04-09 01:52:00,51.3,46.9,29.97,North,360,0.0,0.0,85,0.00,,,0.00,0,Wunderground v.1.15,2013-04-09 05:52:00,
2013-04-09 01:57:00,51.0,46.6,29.96,NNW,336,0.0,0.0,85,0.00,,,0.00,0,Wunderground v.1.15,2013-04-09 05:57:00,
2013-04-09 02:03:00,50.7,46.7,29.97,NNW,336,0.0,0.0,86,0.00,,,0.00,0,Wunderground v.1.15,2013-04-09 06:03:00,
2013-04-09 02:09:00,50.4,46.4,29.97,NNW,338,0.0,1.0,86,0.00,,,0.00,0,Wunderground v.1.15,2013-04-09 06:09:00,
2013-04-09 02:14:00,50.3,46.6,29.97,NNW,336,0.0,0.0,87,0.00,,,0.00,0,Wunderground v.1.15,2013-04-09 06:14:00,
2013-04-09 02:20:00,50.1,46.7,29.97,NNW,336,0.0,0.0,88,0.00,,,0.00,0,Wunderground v.1.15,2013-04-09 06:20:00,
2013-04-09 02:25:00,50.0,46.6,29.97,NNW,336,0.0,0.0,88,0.00,,,0.00,0,Wunderground v.1.15,2013-04-09 06:25:00,
2013-04-09 02:31:00,49.8,46.4,29.97,NNW,336,0.0,0.0,88,0.00,,,0.00,0,Wunderground v.1.15,2013-04-09 06:31:00,
2013-04-09 02:36:00,49.7,46.6,29.98,North,360,0.0,1.0,89,0.00,,,0.00,0,Wunderground v.1.15,2013-04-09 06:36:00,
2013-04-09 02:41:00,49.5,46.4,29.97,NNW,336,0.0,2.0,89,0.00,,,0.00,0,Wunderground v.1.15,2013-04-09 06:41:00,
2013-04-09 02:46:00,49.4,46.6,29.98,NNW,337,1.0,2.0,90,0.00,,,0.00,0,Wunderground v.1.15,2013-04-09 06:46:00,
2013-04-09 02:51:00,49.3,46.5,29.98,NNW,337,1.0,1.0,90,0.00,,,0.00,0,Wunderground v.1.15,2013-04-09 06:51:00,
2013-04-09 02:57:00,49.1,46.3,29.98,North,9,1.0,2.0,90,0.00,,,0.00,0,Wunderground v.1.15,2013-04-09 06:57:00,
2013-04-09 03:03:00,48.9,46.1,29.97,North,5,0.0,2.0,90,0.00,,,0.00,0,Wunderground v.1.15,2013-04-09 07:03:00,
2013-04-09 03:08:00,48.7,46.2,29.98,NW,318,1.0,3.0,91,0.00,,,0.00,0,Wunderground v.1.15,2013-04-09 07:08:00,
2013-04-09 03:13:00,48.6,46.1,29.98,NW,320,2.0,2.0,91,0.00,,,0.00,0,Wunderground v.1.15,2013-04-09 07:13:00,
2013-04-09 03:19:00,48.6,46.1,29.98,ENE,65,1.0,5.0,91,0.00,,,0.00,0,Wunderground v.1.15,2013-04-09 07:19:00,
2013-04-09 03:24:00,48.6,46.1,29.98,NE,46,3.0,3.0,91,0.00,,,0.00,0,Wunderground v.1.15,2013-04-09 07:24:00,
2013-04-09 03:30:00,48.5,46.0,29.98,NE,44,3.0,3.0,91,0.00,,,0.00,0,Wunderground v.1.15,2013-04-09 07:30:00,
2013-04-09 03:35:00,48.3,45.8,29.98,NE,44,2.0,3.0,91,0.00,,,0.00,0,Wunderground v.1.15,2013-04-09 07:35:00,
2013-04-09 03:40:00,48.0,45.8,29.98,NNE,27,2.0,2.0,92,0.00,,,0.00,0,Wunderground v.1.15,2013-04-09 07:40:00,
2013-04-09 03:46:00,47.9,46.0,29.98,NNE,26,1.0,3.0,93,0.00,,,0.00,0,Wunderground v.1.15,2013-04-09 07:46:00,
2013-04-09 03:52:00,47.8,45.6,29.98,NNE,26,1.0,3.0,92,0.00,,,0.00,0,Wunderground v.1.15,2013-04-09 07:52:00,
2013-04-09 03:57:00,47.6,45.7,29.98,NNE,26,1.0,3.0,93,0.00,,,0.00,0,Wunderground v.1.15,2013-04-09 07:57:00,
2013-04-09 04:03:00,47.5,45.6,29.99,NNE,24,1.0,2.0,93,0.00,,,0.00,0,Wunderground v.1.15,2013-04-09 08:03:00,
2013-04-09 04:09:00,47.4,45.8,29.99,NNE,26,1.0,2.0,94,0.00,,,0.00,0,Wunderground v.1.15,2013-04-09 08:09:00,
2013-04-09 04:15:00,47.4,45.8,29.99,NNE,27,0.0,1.0,94,0.00,,,0.00,0,Wunderground v.1.15,2013-04-09 08:15:00,
2013-04-09 04:20:00,47.3,45.7,29.99,NNE,27,0.0,0.0,94,0.00,,,0.00,0,Wunderground v.1.15,2013-04-09 08:20:00,
2013-04-09 04:26:00,47.3,45.7,30.00,NNE,26,1.0,3.0,94,0.00,,,0.00,0,Wunderground v.1.15,2013-04-09 08:26:00,
2013-04-09 04:32:00,47.2,45.6,30.00,NNE,31,2.0,2.0,94,0.00,,,0.00,0,Wunderground v.1.15,2013-04-09 08:32:00,
2013-04-09 04:38:00,47.1,45.5,30.00,NNE,30,0.0,2.0,94,0.00,,,0.00,0,Wunderground v.1.15,2013-04-09 08:38:00,
2013-04-09 04:44:00,46.8,45.4,30.00,NNE,32,0.0,1.0,95,0.00,,,0.00,0,Wunderground v.1.15,2013-04-09 08:44:00,
2013-04-09 04:49:00,46.8,45.4,30.00,NNE,33,0.0,1.0,95,0.00,,,0.00,0,Wunderground v.1.15,2013-04-09 08:49:00,
2013-04-09 04:55:00,46.8,45.7,30.00,NNE,32,0.0,2.0,96,0.00,,,0.00,0,Wunderground v.1.15,2013-04-09 08:55:00,
2013-04-09 05:00:00,46.9,45.8,30.01,NE,44,1.0,1.0,96,0.00,,,0.00,0,Wunderground v.1.15,2013-04-09 09:00:00,
2013-04-09 05:06:00,47.2,46.1,30.01,NE,42,2.0,5.0,96,0.00,,,0.00,0,Wunderground v.1.15,2013-04-09 09:06:00,
2013-04-09 05:11:00,47.4,46.3,30.01,NE,42,2.0,2.0,96,0.00,,,0.00,0,Wunderground v.1.15,2013-04-09 09:11:00,
2013-04-09 05:17:00,47.4,46.0,30.01,NE,41,1.0,2.0,95,0.00,,,0.00,0,Wunderground v.1.15,2013-04-09 09:17:00,
2013-04-09 05:22:00,47.5,46.4,30.01,NE,41,0.0,1.0,96,0.00,,,0.00,0,Wunderground v.1.15,2013-04-09 09:22:00,
2013-04-09 05:27:00,47.6,46.5,30.01,NE,38,1.0,2.0,96,0.00,,,0.00,0,Wunderground v.1.15,2013-04-09 09:27:00,
2013-04-09 05:33:00,47.7,46.6,30.01,NE,34,1.0,2.0,96,0.00,,,0.00,0,Wunderground v.1.15,2013-04-09 09:33:00,
2013-04-09 05:39:00,47.9,46.5,30.02,NNE,32,1.0,2.0,95,0.00,,,0.00,0,Wunderground v.1.15,2013-04-09 09:39:00,
2013-04-09 05:44:00,47.9,46.8,30.02,NE,34,0.0,2.0,96,0.00,,,0.00,0,Wunderground v.1.15,2013-04-09 09:44:00,
2013-04-09 05:50:00,48.1,47.0,30.02,NNE,33,1.0,1.0,96,0.00,,,0.00,0,Wunderground v.1.15,2013-04-09 09:50:00,
2013-04-09 05:55:00,48.3,47.2,30.02,NE,34,1.0,1.0,96,0.00,,,0.00,0,Wunderground v.1.15,2013-04-09 09:55:00,
2013-04-09 06:00:00,48.5,47.1,30.03,NNE,33,1.0,2.0,95,0.00,,,0.00,0,Wunderground v.1.15,2013-04-09 10:00:00,
2013-04-09 06:06:00,48.6,47.2,30.03,NE,34,1.0,3.0,95,0.00,,,0.00,0,Wunderground v.1.15,2013-04-09 10:06:00,
2013-04-09 06:11:00,48.6,47.2,30.03,NNE,32,1.0,2.0,95,0.00,,,0.00,0,Wunderground v.1.15,2013-04-09 10:11:00,
2013-04-09 06:17:00,48.7,47.3,30.04,NNE,33,1.0,3.0,95,0.00,,,0.00,0,Wunderground v.1.15,2013-04-09 10:17:00,
2013-04-09 06:22:00,48.8,47.4,30.04,NNE,33,1.0,1.0,95,0.00,,,0.00,0,Wunderground v.1.15,2013-04-09 10:22:00,
2013-04-09 06:28:00,48.8,47.4,30.04,NNE,33,0.0,1.0,95,0.00,,,0.00,0,Wunderground v.1.15,2013-04-09 10:28:00,
2013-04-09 06:34:00,48.8,47.2,30.04,NNE,32,1.0,4.0,94,0.00,,,0.00,0,Wunderground v.1.15,2013-04-09 10:34:00,
2013-04-09 06:40:00,48.7,47.1,30.04,NNE,32,1.0,1.0,94,0.00,,,0.00,0,Wunderground v.1.15,2013-04-09 10:40:00,
2013-04-09 06:46:00,48.5,46.9,30.05,NNE,31,0.0,2.0,94,0.00,,,0.00,0,Wunderground v.1.15,2013-04-09 10:46:00,
2013-04-09 06:52:00,48.2,46.6,30.05,NW,309,1.0,1.0,94,0.00,,,0.00,5,Wunderground v.1.15,2013-04-09 10:52:00,
2013-04-09 06:57:00,48.1,46.7,30.05,North,360,0.0,1.0,95,0.00,,,0.00,7,Wunderground v.1.15,2013-04-09 10:57:00,
2013-04-09 07:03:00,48.0,46.6,30.05,NNE,24,0.0,3.0,95,0.00,,,0.00,12,Wunderground v.1.15,2013-04-09 11:03:00,
2013-04-09 07:08:00,48.0,46.9,30.05,NE,36,1.0,3.0,96,0.00,,,0.00,16,Wunderground v.1.15,2013-04-09 11:08:00,
2013-04-09 07:14:00,48.1,47.3,30.06,NE,34,1.0,2.0,97,0.00,,,0.00,18,Wunderground v.1.15,2013-04-09 11:14:00,
2013-04-09 07:20:00,48.3,47.5,30.06,ENE,70,1.0,3.0,97,0.00,,,0.00,23,Wunderground v.1.15,2013-04-09 11:20:00,
2013-04-09 07:26:00,48.5,47.4,30.06,ENE,70,2.0,3.0,96,0.00,,,0.00,26,Wunderground v.1.15,2013-04-09 11:26:00,
2013-04-09 07:32:00,48.7,47.6,30.06,ENE,68,0.0,1.0,96,0.00,,,0.00,33,Wunderground v.1.15,2013-04-09 11:32:00,
2013-04-09 07:37:00,48.8,47.7,30.06,ENE,70,1.0,2.0,96,0.00,,,0.00,40,Wunderground v.1.15,2013-04-09 11:37:00,
2013-04-09 07:43:00,49.0,47.9,30.06,ENE,69,1.0,3.0,96,0.00,,,0.00,42,Wunderground v.1.15,2013-04-09 11:43:00,
2013-04-09 07:49:00,49.3,47.9,30.06,ENE,78,2.0,4.0,95,0.00,,,0.00,47,Wunderground v.1.15,2013-04-09 11:49:00,
2013-04-09 07:55:00,49.5,48.1,30.06,East,94,2.0,3.0,95,0.00,,,0.00,54,Wunderground v.1.15,2013-04-09 11:55:00,
2013-04-09 08:00:00,49.8,48.4,30.07,ENE,73,1.0,1.0,95,0.00,,,0.00,58,Wunderground v.1.15,2013-04-09 12:00:00,
2013-04-09 08:06:00,49.9,48.2,30.06,ENE,71,1.0,3.0,94,0.00,,,0.00,67,Wunderground v.1.15,2013-04-09 12:06:00,
2013-04-09 08:12:00,50.3,48.6,30.06,NE,54,1.0,1.0,94,0.00,,,0.00,79,Wunderground v.1.15,2013-04-09 12:12:00,
2013-04-09 08:17:00,50.5,48.8,30.07,NE,55,1.0,2.0,94,0.00,,,0.00,211,Wunderground v.1.15,2013-04-09 12:17:00,
2013-04-09 08:23:00,51.2,49.5,30.06,ENE,71,1.0,3.0,94,0.00,,,0.00,243,Wunderground v.1.15,2013-04-09 12:23:00,
2013-04-09 08:29:00,52.4,50.4,30.07,ENE,76,1.0,3.0,93,0.00,,,0.00,272,Wunderground v.1.15,2013-04-09 12:29:00,
2013-04-09 08:34:00,53.5,51.2,30.07,NW,326,1.0,4.0,92,0.00,,,0.00,265,Wunderground v.1.15,2013-04-09 12:34:00,
2013-04-09 08:40:00,55.0,52.1,30.06,SSW,192,2.0,6.0,90,0.00,,,0.00,299,Wunderground v.1.15,2013-04-09 12:40:00,
2013-04-09 08:46:00,56.5,53.3,30.07,SSE,149,2.0,6.0,89,0.00,,,0.00,295,Wunderground v.1.15,2013-04-09 12:46:00,
2013-04-09 08:51:00,57.5,53.7,30.07,WNW,298,2.0,3.0,87,0.00,,,0.00,338,Wunderground v.1.15,2013-04-09 12:51:00,
2013-04-09 08:57:00,58.8,54.9,30.07,SSW,194,2.0,9.0,87,0.00,,,0.00,345,Wunderground v.1.15,2013-04-09 12:57:00,
2013-04-09 09:02:00,60.5,56.0,30.06,NW,312,5.0,6.0,85,0.00,,,0.00,373,Wunderground v.1.15,2013-04-09 13:02:00,
2013-04-09 09:07:00,62.2,55.6,30.06,West,272,5.0,6.0,79,0.00,,,0.00,383,Wunderground v.1.15,2013-04-09 13:07:00,
2013-04-09 09:13:00,64.0,55.9,30.06,North,360,4.0,8.0,75,0.00,,,0.00,388,Wunderground v.1.15,2013-04-09 13:13:00,
2013-04-09 09:19:00,65.2,56.3,30.06,North,360,4.0,8.0,73,0.00,,,0.00,404,Wunderground v.1.15,2013-04-09 13:19:00,
2013-04-09 09:25:00,66.1,56.0,30.06,North,360,5.0,11.0,70,0.00,,,0.00,410,Wunderground v.1.15,2013-04-09 13:25:00,
2013-04-09 09:30:00,66.6,56.5,30.06,WSW,247,7.0,7.0,70,0.00,,,0.00,422,Wunderground v.1.15,2013-04-09 13:30:00,
2013-04-09 09:36:00,67.1,57.0,30.06,SW,236,6.0,10.0,70,0.00,,,0.00,461,Wunderground v.1.15,2013-04-09 13:36:00,
2013-04-09 09:41:00,67.6,57.9,30.06,WNW,300,6.0,11.0,71,0.00,,,0.00,519,Wunderground v.1.15,2013-04-09 13:41:00,
2013-04-09 09:47:00,68.0,56.6,30.06,WSW,251,5.0,11.0,67,0.00,,,0.00,450,Wunderground v.1.15,2013-04-09 13:47:00,
2013-04-09 09:53:00,68.3,57.3,30.06,WSW,244,5.0,7.0,68,0.00,,,0.00,476,Wunderground v.1.15,2013-04-09 13:53:00,
2013-04-09 09:58:00,68.5,56.7,30.07,North,360,4.0,9.0,66,0.00,,,0.00,508,Wunderground v.1.15,2013-04-09 13:58:00,
2013-04-09 10:04:00,68.5,56.3,30.07,WSW,251,5.0,6.0,65,0.00,,,0.00,573,Wunderground v.1.15,2013-04-09 14:04:00,
2013-04-09 10:10:00,68.8,57.0,30.06,South,190,5.0,5.0,66,0.00,,,0.00,570,Wunderground v.1.15,2013-04-09 14:10:00,
2013-04-09 10:15:00,69.2,56.9,30.06,North,360,6.0,10.0,65,0.00,,,0.00,568,Wunderground v.1.15,2013-04-09 14:15:00,
2013-04-09 10:21:00,69.6,57.3,30.07,SW,235,7.0,10.0,65,0.00,,,0.00,533,Wunderground v.1.15,2013-04-09 14:21:00,
2013-04-09 10:27:00,69.9,56.7,30.07,South,169,7.0,10.0,63,0.00,,,0.00,619,Wunderground v.1.15,2013-04-09 14:27:00,
2013-04-09 10:32:00,69.6,57.3,30.07,North,360,4.0,6.0,65,0.00,,,0.00,680,Wunderground v.1.15,2013-04-09 14:32:00,
2013-04-09 10:37:00,69.9,57.2,30.06,West,260,3.0,7.0,64,0.00,,,0.00,701,Wunderground v.1.15,2013-04-09 14:37:00,
2013-04-09 10:43:00,70.4,57.2,30.06,NE,34,3.0,4.0,63,0.00,,,0.00,707,Wunderground v.1.15,2013-04-09 14:43:00,
2013-04-09 10:48:00,70.5,57.3,30.06,WNW,283,2.0,4.0,63,0.00,,,0.00,740,Wunderground v.1.15,2013-04-09 14:48:00,
2013-04-09 10:54:00,71.1,57.4,30.06,SW,225,4.0,12.0,62,0.00,,,0.00,761,Wunderground v.1.15,2013-04-09 14:54:00,
2013-04-09 10:59:00,71.5,57.8,30.05,WNW,301,7.0,12.0,62,0.00,,,0.00,728,Wunderground v.1.15,2013-04-09 14:59:00,
2013-04-09 11:04:00,71.8,57.2,30.05,SW,225,7.0,11.0,60,0.00,,,0.00,742,Wunderground v.1.15,2013-04-09 15:04:00,
2013-04-09 11:10:00,71.9,56.8,30.06,WNW,286,9.0,11.0,59,0.00,,,0.00,213,Wunderground v.1.15,2013-04-09 15:10:00,
2013-04-09 11:15:00,71.2,56.1,30.06,WNW,301,11.0,17.0,59,0.00,,,0.00,793,Wunderground v.1.15,2013-04-09 15:15:00,
2013-04-09 11:20:00,71.0,56.4,30.05,SSW,204,9.0,9.0,60,0.00,,,0.00,195,Wunderground v.1.15,2013-04-09 15:20:00,
2013-04-09 11:26:00,71.4,57.2,30.05,WSW,238,5.0,9.0,61,0.00,,,0.00,800,Wunderground v.1.15,2013-04-09 15:26:00,
2013-04-09 11:32:00,72.5,57.8,30.06,NNW,333,5.0,5.0,60,0.00,,,0.00,803,Wunderground v.1.15,2013-04-09 15:32:00,
2013-04-09 11:37:00,72.8,57.2,30.06,SSW,196,5.0,6.0,58,0.00,,,0.00,795,Wunderground v.1.15,2013-04-09 15:37:00,
2013-04-09 11:42:00,72.9,57.3,30.06,WNW,286,5.0,9.0,58,0.00,,,0.00,874,Wunderground v.1.15,2013-04-09 15:42:00,
2013-04-09 11:48:00,73.0,57.8,30.05,SE,139,4.0,9.0,59,0.00,,,0.00,860,Wunderground v.1.15,2013-04-09 15:48:00,
2013-04-09 11:54:00,73.4,56.7,30.05,North,360,3.0,7.0,56,0.00,,,0.00,817,Wunderground v.1.15,2013-04-09 15:54:00,
2013-04-09 12:00:00,73.7,58.5,30.05,SW,215,5.0,7.0,59,0.00,,,0.00,870,Wunderground v.1.15,2013-04-09 16:00:00,
2013-04-09 12:06:00,74.5,57.8,30.04,WSW,238,7.0,7.0,56,0.00,,,0.00,863,Wunderground v.1.15,2013-04-09 16:06:00,
2013-04-09 12:11:00,75.0,57.7,30.04,NNW,338,4.0,5.0,55,0.00,,,0.00,904,Wunderground v.1.15,2013-04-09 16:11:00,
2013-04-09 12:17:00,74.8,57.0,30.03,SSW,194,4.0,8.0,54,0.00,,,0.00,874,Wunderground v.1.15,2013-04-09 16:17:00,
2013-04-09 12:22:00,74.9,56.6,30.03,WNW,284,7.0,18.0,53,0.00,,,0.00,875,Wunderground v.1.15,2013-04-09 16:22:00,
2013-04-09 12:27:00,75.2,57.4,30.03,WNW,298,7.0,18.0,54,0.00,,,0.00,881,Wunderground v.1.15,2013-04-09 16:27:00,
2013-04-09 12:33:00,75.3,58.0,30.03,SW,227,4.0,11.0,55,0.00,,,0.00,902,Wunderground v.1.15,2013-04-09 16:33:00,
2013-04-09 12:38:00,76.1,58.2,30.02,SSW,198,5.0,12.0,54,0.00,,,0.00,974,Wunderground v.1.15,2013-04-09 16:38:00,
2013-04-09 12:43:00,76.7,57.2,30.02,SW,228,8.0,15.0,51,0.00,,,0.00,907,Wunderground v.1.15,2013-04-09 16:43:00,
2013-04-09 12:49:00,77.2,59.3,30.02,North,360,8.0,15.0,54,0.00,,,0.00,932,Wunderground v.1.15,2013-04-09 16:49:00,
2013-04-09 12:54:00,77.7,58.1,30.01,WSW,244,7.0,12.0,51,0.00,,,0.00,956,Wunderground v.1.15,2013-04-09 16:54:00,
2013-04-09 13:00:00,77.8,58.2,30.01,WSW,247,8.0,8.0,51,0.00,,,0.00,274,Wunderground v.1.15,2013-04-09 17:00:00,
2013-04-09 13:06:00,77.8,57.7,30.01,WSW,240,8.0,13.0,50,0.00,,,0.00,911,Wunderground v.1.15,2013-04-09 17:06:00,
2013-04-09 13:11:00,77.6,56.4,30.01,WNW,292,10.0,14.0,48,0.00,,,0.00,928,Wunderground v.1.15,2013-04-09 17:11:00,
2013-04-09 13:17:00,77.5,56.8,30.01,NW,308,12.0,15.0,49,0.00,,,0.00,935,Wunderground v.1.15,2013-04-09 17:17:00,
2013-04-09 13:23:00,77.9,56.6,30.00,North,360,11.0,15.0,48,0.00,,,0.00,918,Wunderground v.1.15,2013-04-09 17:23:00,
2013-04-09 13:29:00,77.9,56.0,30.00,WSW,258,10.0,18.0,47,0.00,,,0.00,870,Wunderground v.1.15,2013-04-09 17:29:00,
2013-04-09 13:34:00,77.7,56.4,30.00,WNW,298,9.0,13.0,48,0.00,,,0.00,244,Wunderground v.1.15,2013-04-09 17:34:00,
2013-04-09 13:40:00,78.1,58.5,29.99,South,189,8.0,8.0,51,0.00,,,0.00,1002,Wunderground v.1.15,2013-04-09 17:40:00,
2013-04-09 13:46:00,79.0,57.6,29.99,SW,216,8.0,12.0,48,0.00,,,0.00,1035,Wunderground v.1.15,2013-04-09 17:46:00,
2013-04-09 13:51:00,79.8,57.8,29.99,North,360,8.0,8.0,47,0.00,,,0.00,1004,Wunderground v.1.15,2013-04-09 17:51:00,
2013-04-09 13:57:00,79.8,58.9,29.99,SSW,209,8.0,10.0,49,0.00,,,0.00,986,Wunderground v.1.15,2013-04-09 17:57:00,
2013-04-09 14:03:00,79.9,57.9,29.99,WNW,287,6.0,7.0,47,0.00,,,0.00,422,Wunderground v.1.15,2013-04-09 18:03:00,
2013-04-09 14:08:00,80.6,58.5,29.98,WSW,248,7.0,18.0,47,0.00,,,0.00,949,Wunderground v.1.15,2013-04-09 18:08:00,
2013-04-09 14:14:00,80.2,57.5,29.98,SW,230,8.0,9.0,46,0.00,,,0.00,251,Wunderground v.1.15,2013-04-09 18:14:00,
2013-04-09 14:19:00,79.6,58.2,29.98,West,261,7.0,12.0,48,0.00,,,0.00,230,Wunderground v.1.15,2013-04-09 18:19:00,
2013-04-09 14:25:00,79.5,56.9,29.97,SSW,213,7.0,7.0,46,0.00,,,0.00,856,Wunderground v.1.15,2013-04-09 18:25:00,
2013-04-09 14:30:00,79.8,58.4,29.97,SW,224,5.0,5.0,48,0.00,,,0.00,840,Wunderground v.1.15,2013-04-09 18:30:00,
2013-04-09 14:36:00,80.4,59.5,29.96,West,259,6.0,10.0,49,0.00,,,0.00,816,Wunderground v.1.15,2013-04-09 18:36:00,
2013-04-09 14:42:00,80.9,57.6,29.96,SW,228,6.0,6.0,45,0.00,,,0.00,258,Wunderground v.1.15,2013-04-09 18:42:00,
2013-04-09 14:47:00,80.4,58.3,29.96,North,360,5.0,8.0,47,0.00,,,0.00,265,Wunderground v.1.15,2013-04-09 18:47:00,
2013-04-09 14:53:00,80.3,57.6,29.96,SW,227,4.0,5.0,46,0.00,,,0.00,837,Wunderground v.1.15,2013-04-09 18:53:00,
2013-04-09 14:58:00,80.6,58.5,29.95,WNW,286,3.0,6.0,47,0.00,,,0.00,311,Wunderground v.1.15,2013-04-09 18:58:00,
2013-04-09 15:03:00,80.4,58.3,29.95,NW,315,3.0,4.0,47,0.00,,,0.00,905,Wunderground v.1.15,2013-04-09 19:03:00,
2013-04-09 15:09:00,80.2,58.7,29.95,South,187,5.0,10.0,48,0.00,,,0.00,244,Wunderground v.1.15,2013-04-09 19:09:00,
2013-04-09 15:15:00,79.6,58.8,29.95,WSW,240,7.0,8.0,49,0.00,,,0.00,297,Wunderground v.1.15,2013-04-09 19:15:00,
2013-04-09 15:21:00,79.6,58.8,29.94,South,190,6.0,7.0,49,0.00,,,0.00,606,Wunderground v.1.15,2013-04-09 19:21:00,
2013-04-09 15:27:00,79.6,57.0,29.94,WSW,244,7.0,15.0,46,0.00,,,0.00,229,Wunderground v.1.15,2013-04-09 19:27:00,
2013-04-09 15:33:00,79.9,59.0,29.94,SSW,211,8.0,9.0,49,0.00,,,0.00,821,Wunderground v.1.15,2013-04-09 19:33:00,
2013-04-09 15:38:00,80.3,57.6,29.93,SW,225,7.0,17.0,46,0.00,,,0.00,751,Wunderground v.1.15,2013-04-09 19:38:00,
2013-04-09 15:43:00,81.0,58.9,29.93,WSW,246,9.0,13.0,47,0.00,,,0.00,763,Wunderground v.1.15,2013-04-09 19:43:00,
2013-04-09 15:49:00,82.0,59.2,29.93,SW,220,8.0,13.0,46,0.00,,,0.00,236,Wunderground v.1.15,2013-04-09 19:49:00,
2013-04-09 15:54:00,81.4,56.8,29.93,SW,234,7.0,10.0,43,0.00,,,0.00,350,Wunderground v.1.15,2013-04-09 19:54:00,
2013-04-09 16:00:00,80.8,57.5,29.93,SE,136,6.0,6.0,45,0.00,,,0.00,202,Wunderground v.1.15,2013-04-09 20:00:00,
2013-04-09 16:06:00,80.7,57.4,29.93,SSE,148,4.0,6.0,45,0.00,,,0.00,207,Wunderground v.1.15,2013-04-09 20:06:00,
2013-04-09 16:11:00,80.9,57.6,29.92,WSW,256,2.0,4.0,45,0.00,,,0.00,167,Wunderground v.1.15,2013-04-09 20:11:00,
2013-04-09 16:16:00,81.1,57.1,29.92,SSE,160,3.0,6.0,44,0.00,,,0.00,701,Wunderground v.1.15,2013-04-09 20:16:00,
2013-04-09 16:21:00,81.6,59.4,29.92,South,173,4.0,7.0,47,0.00,,,0.00,673,Wunderground v.1.15,2013-04-09 20:21:00,
2013-04-09 16:27:00,81.4,58.6,29.91,South,174,6.0,11.0,46,0.00,,,0.00,204,Wunderground v.1.15,2013-04-09 20:27:00,
2013-04-09 16:32:00,81.0,58.9,29.91,South,173,5.0,6.0,47,0.00,,,0.00,647,Wunderground v.1.15,2013-04-09 20:32:00,
2013-04-09 16:38:00,80.9,56.9,29.91,South,182,3.0,6.0,44,0.00,,,0.00,239,Wunderground v.1.15,2013-04-09 20:38:00,
2013-04-09 16:43:00,80.9,58.2,29.91,WSW,250,5.0,9.0,46,0.00,,,0.00,524,Wunderground v.1.15,2013-04-09 20:43:00,
2013-04-09 16:49:00,81.5,58.7,29.91,SSW,200,5.0,9.0,46,0.00,,,0.00,179,Wunderground v.1.15,2013-04-09 20:49:00,
2013-04-09 16:55:00,81.5,58.1,29.90,South,172,5.0,7.0,45,0.00,,,0.00,464,Wunderground v.1.15,2013-04-09 20:55:00,
2013-04-09 17:00:00,81.7,58.3,29.90,WSW,238,5.0,5.0,45,0.00,,,0.00,439,Wunderground v.1.15,2013-04-09 21:00:00,
2013-04-09 17:06:00,82.0,59.2,29.90,WSW,238,5.0,7.0,46,0.00,,,0.00,135,Wunderground v.1.15,2013-04-09 21:06:00,
2013-04-09 17:11:00,82.2,58.1,29.90,West,266,4.0,4.0,44,0.00,,,0.00,494,Wunderground v.1.15,2013-04-09 21:11:00,
2013-04-09 17:17:00,83.0,57.5,29.90,West,260,3.0,7.0,42,0.00,,,0.00,401,Wunderground v.1.15,2013-04-09 21:17:00,
2013-04-09 17:23:00,83.2,59.6,29.90,SSW,196,4.0,4.0,45,0.00,,,0.00,413,Wunderground v.1.15,2013-04-09 21:23:00,
2013-04-09 17:29:00,83.6,58.7,29.89,South,186,5.0,7.0,43,0.00,,,0.00,383,Wunderground v.1.15,2013-04-09 21:29:00,
2013-04-09 17:35:00,83.7,58.2,29.89,West,264,7.0,15.0,42,0.00,,,0.00,355,Wunderground v.1.15,2013-04-09 21:35:00,
2013-04-09 17:41:00,83.3,57.1,29.89,North,360,9.0,16.0,41,0.00,,,0.00,257,Wunderground v.1.15,2013-04-09 21:41:00,
2013-04-09 17:47:00,83.0,58.2,29.89,SSW,208,8.0,16.0,43,0.00,,,0.00,315,Wunderground v.1.15,2013-04-09 21:47:00,
2013-04-09 17:52:00,82.8,57.4,29.90,North,360,7.0,10.0,42,0.00,,,0.00,299,Wunderground v.1.15,2013-04-09 21:52:00,
2013-04-09 17:58:00,82.7,57.9,29.90,West,262,7.0,12.0,43,0.00,,,0.00,251,Wunderground v.1.15,2013-04-09 21:58:00,
2013-04-09 18:03:00,82.6,57.2,29.90,WSW,248,7.0,10.0,42,0.00,,,0.00,200,Wunderground v.1.15,2013-04-09 22:03:00,
2013-04-09 18:09:00,82.3,57.6,29.90,WSW,250,6.0,10.0,43,0.00,,,0.00,200,Wunderground v.1.15,2013-04-09 22:09:00,
2013-04-09 18:15:00,81.6,57.6,29.90,North,360,5.0,9.0,44,0.00,,,0.00,121,Wunderground v.1.15,2013-04-09 22:15:00,
2013-04-09 18:20:00,80.9,56.9,29.90,NW,304,8.0,10.0,44,0.00,,,0.00,111,Wunderground v.1.15,2013-04-09 22:20:00,
2013-04-09 18:27:00,80.2,56.9,29.90,WNW,300,9.0,13.0,45,0.00,,,0.00,77,Wunderground v.1.15,2013-04-09 22:27:00,
2013-04-09 18:33:00,79.6,56.4,29.90,North,360,9.0,15.0,45,0.00,,,0.00,84,Wunderground v.1.15,2013-04-09 22:33:00,
2013-04-09 18:39:00,79.3,57.3,29.90,WNW,293,8.0,15.0,47,0.00,,,0.00,100,Wunderground v.1.15,2013-04-09 22:39:00,
2013-04-09 18:44:00,78.9,57.5,29.90,West,269,8.0,9.0,48,0.00,,,0.00,77,Wunderground v.1.15,2013-04-09 22:44:00,
2013-04-09 18:50:00,78.5,57.2,29.90,WNW,290,8.0,8.0,48,0.00,,,0.00,65,Wunderground v.1.15,2013-04-09 22:50:00,
2013-04-09 18:55:00,78.1,56.8,29.90,North,360,8.0,13.0,48,0.00,,,0.00,49,Wunderground v.1.15,2013-04-09 22:55:00,
2013-04-09 19:00:00,77.7,57.0,29.90,North,360,8.0,13.0,49,0.00,,,0.00,42,Wunderground v.1.15,2013-04-09 23:00:00,
2013-04-09 19:06:00,77.4,56.2,29.89,WNW,282,8.0,13.0,48,0.00,,,0.00,39,Wunderground v.1.15,2013-04-09 23:06:00,
2013-04-09 19:12:00,77.2,56.6,29.90,North,360,7.0,8.0,49,0.00,,,0.00,33,Wunderground v.1.15,2013-04-09 23:12:00,
2013-04-09 19:17:00,76.9,57.4,29.90,WNW,291,7.0,8.0,51,0.00,,,0.00,28,Wunderground v.1.15,2013-04-09 23:17:00,
2013-04-09 19:23:00,76.4,56.9,29.90,North,360,7.0,9.0,51,0.00,,,0.00,23,Wunderground v.1.15,2013-04-09 23:23:00,
2013-04-09 19:28:00,75.7,56.8,29.90,WNW,286,7.0,9.0,52,0.00,,,0.00,18,Wunderground v.1.15,2013-04-09 23:28:00,
2013-04-09 19:33:00,75.2,56.4,29.90,West,269,7.0,12.0,52,0.00,,,0.00,14,Wunderground v.1.15,2013-04-09 23:33:00,
2013-04-09 19:39:00,74.4,56.7,29.90,WNW,289,6.0,12.0,54,0.00,,,0.00,9,Wunderground v.1.15,2013-04-09 23:39:00,
2013-04-09 19:45:00,73.3,56.7,29.90,WNW,292,6.0,7.0,56,0.00,,,0.00,5,Wunderground v.1.15,2013-04-09 23:45:00,
2013-04-09 19:51:00,71.8,56.7,29.90,WNW,286,5.0,5.0,59,0.00,,,0.00,0,Wunderground v.1.15,2013-04-09 23:51:00,
2013-04-09 19:56:00,70.6,56.0,29.91,WNW,289,5.0,6.0,60,0.00,,,0.00,0,Wunderground v.1.15,2013-04-09 23:56:00,
2013-04-09 20:02:00,69.2,55.6,29.91,NW,309,5.0,5.0,62,0.00,,,0.00,0,Wunderground v.1.15,2013-04-10 00:02:00,
2013-04-09 20:07:00,68.2,55.6,29.91,WNW,287,4.0,6.0,64,0.00,,,0.00,0,Wunderground v.1.15,2013-04-10 00:07:00,
2013-04-09 20:13:00,67.3,55.1,29.91,WNW,292,5.0,6.0,65,0.00,,,0.00,0,Wunderground v.1.15,2013-04-10 00:13:00,
2013-04-09 20:19:00,66.6,54.9,29.91,West,272,5.0,6.0,66,0.00,,,0.00,0,Wunderground v.1.15,2013-04-10 00:19:00,
2013-04-09 20:24:00,66.0,55.1,29.91,WNW,287,5.0,5.0,68,0.00,,,0.00,0,Wunderground v.1.15,2013-04-10 00:24:00,
2013-04-09 20:30:00,65.4,54.6,29.91,West,278,4.0,6.0,68,0.00,,,0.00,0,Wunderground v.1.15,2013-04-10 00:30:00,
2013-04-09 20:35:00,64.9,54.5,29.91,WNW,292,3.0,6.0,69,0.00,,,0.00,0,Wunderground v.1.15,2013-04-10 00:35:00,
2013-04-09 20:40:00,64.4,54.4,29.91,WNW,294,2.0,2.0,70,0.00,,,0.00,0,Wunderground v.1.15,2013-04-10 00:40:00,
2013-04-09 20:46:00,63.8,54.2,29.91,WNW,299,2.0,5.0,71,0.00,,,0.00,0,Wunderground v.1.15,2013-04-10 00:46:00,
2013-04-09 20:51:00,63.4,54.2,29.91,WNW,289,3.0,6.0,72,0.00,,,0.00,0,Wunderground v.1.15,2013-04-10 00:51:00,
2013-04-09 20:56:00,63.0,54.2,29.92,WNW,301,3.0,3.0,73,0.00,,,0.00,0,Wunderground v.1.15,2013-04-10 00:56:00,
2013-04-09 21:02:00,62.5,54.1,29.92,WNW,302,2.0,2.0,74,0.00,,,0.00,0,Wunderground v.1.15,2013-04-10 01:02:00,
2013-04-09 21:08:00,62.1,54.1,29.92,WNW,302,0.0,2.0,75,0.00,,,0.00,0,Wunderground v.1.15,2013-04-10 01:08:00,
2013-04-09 21:13:00,61.7,53.7,29.92,WSW,249,1.0,2.0,75,0.00,,,0.00,0,Wunderground v.1.15,2013-04-10 01:13:00,
2013-04-09 21:19:00,61.3,53.7,29.92,WSW,249,2.0,3.0,76,0.00,,,0.00,0,Wunderground v.1.15,2013-04-10 01:19:00,
2013-04-09 21:25:00,61.1,53.8,29.92,WSW,248,1.0,2.0,77,0.00,,,0.00,0,Wunderground v.1.15,2013-04-10 01:25:00,
2013-04-09 21:31:00,60.7,53.4,29.92,WSW,248,1.0,1.0,77,0.00,,,0.00,0,Wunderground v.1.15,2013-04-10 01:31:00,
2013-04-09 21:37:00,60.4,53.5,29.92,SW,236,2.0,5.0,78,0.00,,,0.00,0,Wunderground v.1.15,2013-04-10 01:37:00,
2013-04-09 21:43:00,60.1,53.2,29.92,WSW,239,2.0,3.0,78,0.00,,,0.00,0,Wunderground v.1.15,2013-04-10 01:43:00,
2013-04-09 21:49:00,59.8,53.3,29.92,WSW,238,1.0,3.0,79,0.00,,,0.00,0,Wunderground v.1.15,2013-04-10 01:49:00,
2013-04-09 21:54:00,59.5,53.0,29.92,WSW,239,1.0,2.0,79,0.00,,,0.00,0,Wunderground v.1.15,2013-04-10 01:54:00,
2013-04-09 22:00:00,59.1,52.9,29.92,WSW,239,1.0,2.0,80,0.00,,,0.00,0,Wunderground v.1.15,2013-04-10 02:00:00,
2013-04-09 22:06:00,58.8,53.0,29.92,WSW,238,1.0,3.0,81,0.00,,,0.00,0,Wunderground v.1.15,2013-04-10 02:06:00,
2013-04-09 22:11:00,58.5,52.7,29.92,SW,224,2.0,3.0,81,0.00,,,0.00,0,Wunderground v.1.15,2013-04-10 02:11:00,
2013-04-09 22:16:00,58.4,52.9,29.92,SW,215,3.0,5.0,82,0.00,,,0.00,0,Wunderground v.1.15,2013-04-10 02:16:00,
2013-04-09 22:22:00,58.2,52.7,29.91,SSW,213,4.0,4.0,82,0.00,,,0.00,0,Wunderground v.1.15,2013-04-10 02:22:00,
2013-04-09 22:27:00,58.2,52.7,29.91,SSW,212,3.0,4.0,82,0.00,,,0.00,0,Wunderground v.1.15,2013-04-10 02:27:00,
2013-04-09 22:33:00,58.1,52.6,29.91,SW,215,2.0,3.0,82,0.00,,,0.00,0,Wunderground v.1.15,2013-04-10 02:33:00,
2013-04-09 22:39:00,57.9,52.8,29.91,SW,217,2.0,3.0,83,0.00,,,0.00,0,Wunderground v.1.15,2013-04-10 02:39:00,
2013-04-09 22:44:00,57.8,52.7,29.91,SW,215,2.0,3.0,83,0.00,,,0.00,0,Wunderground v.1.15,2013-04-10 02:44:00,
2013-04-09 22:49:00,57.6,52.5,29.91,SW,215,3.0,3.0,83,0.00,,,0.00,0,Wunderground v.1.15,2013-04-10 02:49:00,
2013-04-09 22:55:00,57.3,52.5,29.91,SW,215,3.0,4.0,84,0.00,,,0.00,0,Wunderground v.1.15,2013-04-10 02:55:00,
2013-04-09 23:00:00,57.2,52.4,29.91,SW,217,3.0,4.0,84,0.00,,,0.00,0,Wunderground v.1.15,2013-04-10 03:00:00,
2013-04-09 23:06:00,56.9,52.1,29.91,SW,216,4.0,6.0,84,0.00,,,0.00,0,Wunderground v.1.15,2013-04-10 03:06:00,
2013-04-09 23:11:00,56.6,52.1,29.91,SW,221,4.0,5.0,85,0.00,,,0.00,0,Wunderground v.1.15,2013-04-10 03:11:00,
2013-04-09 23:16:00,56.4,51.9,29.91,SW,221,4.0,5.0,85,0.00,,,0.00,0,Wunderground v.1.15,2013-04-10 03:16:00,
2013-04-09 23:22:00,56.0,51.9,29.91,SW,234,3.0,3.0,86,0.00,,,0.00,0,Wunderground v.1.15,2013-04-10 03:22:00,
2013-04-09 23:27:00,55.7,51.6,29.90,SW,232,2.0,3.0,86,0.00,,,0.00,0,Wunderground v.1.15,2013-04-10 03:27:00,
2013-04-09 23:32:00,55.4,51.6,29.90,SSW,206,3.0,6.0,87,0.00,,,0.00,0,Wunderground v.1.15,2013-04-10 03:32:00,
2013-04-09 23:37:00,55.2,51.4,29.90,SW,225,4.0,7.0,87,0.00,,,0.00,0,Wunderground v.1.15,2013-04-10 03:37:00,
2013-04-09 23:43:00,55.0,51.5,29.90,WSW,245,4.0,4.0,88,0.00,,,0.00,0,Wunderground v.1.15,2013-04-10 03:43:00,
2013-04-09 23:48:00,54.9,51.4,29.90,SW,216,3.0,5.0,88,0.00,,,0.00,0,Wunderground v.1.15,2013-04-10 03:48:00,
2013-04-09 23:54:00,54.6,51.1,29.90,SSW,198,2.0,5.0,88,0.00,,,0.00,0,Wunderground v.1.15,2013-04-10 03:54:00,
2013-04-09 23:59:00,54.4,51.2,29.89,SSW,198,2.0,5.0,89,0.00,,,0.00,0,Wunderground v.1.15,2013-04-10 03:59:00,